KD4BNP Weather Reports


time (UTC)temp
F
wind
direction
speed
knots
gust
knots
rain 1hr
in
rain 24hr
in
rain mn
in
humidity
%
barometer
mb
20220811232938 83 109 0.9 4.3 0.00 0.00 0.00 78 1016.1
20220811225945 84 249 0.9 4.3 0.00 0.00 0.00 75 1016.0
20220811215954 85 100 0.9 4.3 0.00 0.00 0.00 72 1016.2
20220811212959 85 131 0.9 6.1 0.00 0.00 0.00 74 1016.3
20220811210005 85 182 0.0 5.2 0.00 0.00 0.00 73 1016.6
20220811202959 86 37 1.7 6.1 0.00 0.00 0.00 72 1016.5
20220811200005 87 185 0.9 7.8 0.00 0.00 0.00 68 1016.5
20220811183000 92 61 4.3 10.4 0.00 0.00 0.00 62 1017.4
20220811170005 89 156 2.6 8.7 0.00 0.00 0.00 67 1018.0
20220811163000 91 151 3.5 7.0 0.00 0.00 0.00 64 1018.1
20220811145943 86 192 2.6 7.0 0.00 0.00 0.00 73 1018.7
20220811135954 85 216 3.5 6.1 0.00 0.00 0.00 77 1018.2
20220811132959 84 171 0.9 2.6 0.00 0.00 0.00 81 1018.4
20220811130004 79 264 0.9 2.6 0.00 0.00 0.00 91 1018.5
20220811120004 77 190 0.9 1.7 0.00 0.00 0.00 97 1018.2
20220811103000 75 231 0.0 0.0 0.00 0.00 0.00 97 1017.6
20220811072938 76 226 0.0 0.0 0.00 0.00 0.00 96 1018.1
20220811062948 76 226 0.0 0.0 0.00 0.00 0.00 95 1018.7
20220811055954 76 226 0.0 0.0 0.00 0.00 0.00 94 1018.9
20220811042959 77 226 0.0 0.0 0.00 0.00 0.00 93 1019.1
20220811040004 77 226 0.0 0.0 0.00 0.00 0.00 92 1019.0
20220811013001 81 180 0.0 2.6 0.00 0.00 0.00 86 1018.4
20220811000004 83 184 1.7 5.2 0.00 0.00 0.00 77 1017.9